• In Netherlands
  • List of Countries
  • For 7 days
  • Water Temperature
  • Satellite Maps
  • Weather Map
  • Weather Widgets
  • user-avatar
    Login

    Hourly Weather Gomel

    Today, 18 August, Friday

    Time Temperature Precipitation Wind Pressure Humidity
    00:00 +21°C° 0 mm 2 mps 755 mmHg 73%
    01:00 +21°C° 0 mm 2 mps 755 mmHg 74%
    02:00 +20°C° 0 mm 2 mps 755 mmHg 74%
    03:00 +20°C° 0 mm 2 mps 755 mmHg 75%
    04:00 +19°C° 0 mm 2 mps 755 mmHg 75%
    05:00 +19°C° 0 mm 2 mps 755 mmHg 76%
    06:00 +21°C° 0 mm 2 mps 755 mmHg 72%
    07:00 +23°C° 0 mm 2 mps 755 mmHg 68%
    08:00 +24°C° 0 mm 2 mps 755 mmHg 64%
    09:00 +26°C° 0 mm 2 mps 755 mmHg 57%
    10:00 +28°C° 0 mm 2 mps 755 mmHg 50%
    11:00 +30°C° 0 mm 2 mps 755 mmHg 43%
    12:00 +31°C° 0 mm 2 mps 754 mmHg 40%
    13:00 +31°C° 0 mm 2 mps 754 mmHg 36%
    14:00 +32°C° 0 mm 2 mps 754 mmHg 33%
    15:00 +31°C° 0 mm 2 mps 754 mmHg 36%
    16:00 +31°C° 0 mm 2 mps 754 mmHg 38%
    17:00 +31°C° 0 mm 1 mps 753 mmHg 41%
    18:00 +29°C° 0 mm 1 mps 753 mmHg 46%
    19:00 +27°C° 0 mm 1 mps 753 mmHg 50%
    20:00 +24°C° 0 mm 2 mps 753 mmHg 55%
    21:00 +24°C° 0 mm 2 mps 753 mmHg 58%
    22:00 +23°C° 0 mm 2 mps 754 mmHg 62%
    23:00 +21°C° 0 mm 2 mps 754 mmHg 65%

    Tomorrow, 19 August, Saturday

    Time Temperature Precipitation Wind Pressure Humidity
    00:00 +21°C° 0 mm 2 mps 754 mmHg 66%
    01:00 +20°C° 0 mm 2 mps 754 mmHg 68%
    02:00 +20°C° 0 mm 2 mps 754 mmHg 69%
    03:00 +20°C° 0 mm 2 mps 754 mmHg 69%
    04:00 +19°C° 0 mm 2 mps 754 mmHg 69%
    05:00 +19°C° 0 mm 2 mps 754 mmHg 69%
    06:00 +21°C° 0 mm 2 mps 754 mmHg 64%
    07:00 +23°C° 0 mm 2 mps 754 mmHg 60%
    08:00 +25°C° 0 mm 3 mps 754 mmHg 56%
    09:00 +27°C° 0 mm 3 mps 754 mmHg 51%
    10:00 +29°C° 0 mm 3 mps 754 mmHg 46%
    11:00 +32°C° 0 mm 4 mps 754 mmHg 42%
    12:00 +32°C° 0 mm 4 mps 754 mmHg 39%
    13:00 +33°C° 0 mm 4 mps 754 mmHg 35%
    14:00 +34°C° 0 mm 5 mps 754 mmHg 32%
    15:00 +33°C° 0 mm 4 mps 753 mmHg 35%
    16:00 +33°C° 0 mm 4 mps 753 mmHg 37%
    17:00 +32°C° 0 mm 4 mps 753 mmHg 39%
    18:00 +29°C° 0 mm 3 mps 753 mmHg 42%
    19:00 +27°C° 0 mm 3 mps 753 mmHg 45%
    20:00 +25°C° 0 mm 3 mps 753 mmHg 48%
    21:00 +24°C° 0 mm 3 mps 753 mmHg 49%
    22:00 +24°C° 0 mm 3 mps 753 mmHg 51%
    23:00 +22°C° 0 mm 3 mps 753 mmHg 53%

    Day after tomorrow, 20 August, Sunday

    Time Temperature Precipitation Wind Pressure Humidity
    00:00 +22°C° 0 mm 3 mps 753 mmHg 55%
    01:00 +21°C° 0 mm 3 mps 753 mmHg 56%
    02:00 +21°C° 0 mm 3 mps 753 mmHg 58%
    03:00 +20°C° 0 mm 3 mps 753 mmHg 59%
    04:00 +20°C° 0 mm 3 mps 753 mmHg 61%
    05:00 +20°C° 0 mm 3 mps 753 mmHg 63%
    06:00 +21°C° 0 mm 4 mps 753 mmHg 60%
    07:00 +22°C° 0 mm 4 mps 753 mmHg 58%
    08:00 +25°C° 0 mm 4 mps 753 mmHg 56%
    09:00 +26°C° 0 mm 4 mps 753 mmHg 52%
    10:00 +28°C° 0 mm 4 mps 753 mmHg 49%
    11:00 +29°C° 0 mm 4 mps 753 mmHg 45%
    12:00 +30°C° 0 mm 4 mps 753 mmHg 43%
    13:00 +32°C° 0 mm 4 mps 752 mmHg 40%
    14:00 +32°C° 0 mm 4 mps 752 mmHg 38%
    15:00 +32°C° 0 mm 4 mps 752 mmHg 39%
    16:00 +32°C° 0 mm 4 mps 752 mmHg 41%
    17:00 +31°C° 0 mm 3 mps 751 mmHg 43%
    18:00 +29°C° 0 mm 4 mps 751 mmHg 46%
    19:00 +27°C° 0 mm 4 mps 751 mmHg 49%
    20:00 +25°C° 0 mm 4 mps 751 mmHg 52%
    21:00 +25°C° 0 mm 4 mps 751 mmHg 54%
    22:00 +23°C° 0 mm 4 mps 751 mmHg 55%
    23:00 +22°C° 0 mm 4 mps 751 mmHg 56%

    21 August, Monday

    Time Temperature Precipitation Wind Pressure Humidity
    00:00 +22°C° 0 mm 4 mps 751 mmHg 56%
    01:00 +22°C° 0 mm 4 mps 750 mmHg 57%
    02:00 +22°C° 0 mm 4 mps 750 mmHg 57%
    03:00 +22°C° 0 mm 4 mps 750 mmHg 57%
    04:00 +22°C° 0 mm 4 mps 750 mmHg 56%
    05:00 +22°C° 0 mm 4 mps 750 mmHg 56%
    06:00 +22°C° 0 mm 4 mps 749 mmHg 57%
    07:00 +23°C° 0 mm 4 mps 749 mmHg 57%
    08:00 +23°C° 0 mm 4 mps 749 mmHg 58%
    09:00 +26°C° 0 mm 3 mps 749 mmHg 55%
    10:00 +27°C° 0 mm 3 mps 749 mmHg 51%
    11:00 +28°C° 0 mm 2 mps 748 mmHg 47%
    12:00 +29°C° 0 mm 2 mps 748 mmHg 45%
    13:00 +30°C° 0 mm 2 mps 748 mmHg 42%
    14:00 +31°C° 0 mm 2 mps 747 mmHg 39%
    15:00 +30°C° 0.1 mm 3 mps 747 mmHg 44%
    16:00 +30°C° 0.1 mm 3 mps 747 mmHg 49%
    17:00 +29°C° 0.1 mm 3 mps 746 mmHg 54%
    18:00 +26°C° 1.1 mm 4 mps 746 mmHg 64%
    19:00 +22°C° 1.1 mm 5 mps 746 mmHg 75%
    20:00 +20°C° 1.1 mm 5 mps 746 mmHg 85%
    21:00 +19°C° 2 mm 5 mps 746 mmHg 88%
    22:00 +17°C° 2 mm 5 mps 746 mmHg 91%
    23:00 +17°C° 2 mm 4 mps 746 mmHg 94%

    22 August, Tuesday

    Time Temperature Precipitation Wind Pressure Humidity
    00:00 +17°C° 0.7 mm 4 mps 745 mmHg 94%
    01:00 +17°C° 0.7 mm 4 mps 745 mmHg 94%
    02:00 +17°C° 0.7 mm 4 mps 745 mmHg 94%
    03:00 +15°C° 0.6 mm 4 mps 745 mmHg 94%
    04:00 +15°C° 0.6 mm 4 mps 745 mmHg 94%
    05:00 +15°C° 0.6 mm 4 mps 745 mmHg 94%
    06:00 +15°C° 0.3 mm 4 mps 745 mmHg 94%
    07:00 +15°C° 0.3 mm 4 mps 745 mmHg 93%
    08:00 +15°C° 0.3 mm 4 mps 745 mmHg 93%
    09:00 +15°C° 0.2 mm 4 mps 745 mmHg 92%
    10:00 +15°C° 0.2 mm 5 mps 745 mmHg 92%
    11:00 +15°C° 0.2 mm 5 mps 745 mmHg 91%
    12:00 +15°C° 0.2 mm 5 mps 745 mmHg 90%
    13:00 +15°C° 0.2 mm 5 mps 745 mmHg 90%
    14:00 +15°C° 0.2 mm 5 mps 745 mmHg 89%
    15:00 +15°C° 0.1 mm 5 mps 745 mmHg 88%
    16:00 +15°C° 0.1 mm 5 mps 745 mmHg 88%
    17:00 +14°C° 0.1 mm 5 mps 745 mmHg 87%
    18:00 +14°C° 0 mm 5 mps 745 mmHg 88%
    19:00 +14°C° 0 mm 4 mps 745 mmHg 88%
    20:00 +14°C° 0 mm 4 mps 745 mmHg 89%
    21:00 +14°C° 0 mm 4 mps 745 mmHg 89%
    22:00 +14°C° 0 mm 4 mps 745 mmHg 89%
    23:00 +14°C° 0 mm 4 mps 745 mmHg 89%

    23 August, Wednesday

    Time Temperature Precipitation Wind Pressure Humidity
    00:00 +14°C° 0.1 mm 4 mps 745 mmHg 89%
    01:00 +14°C° 0.1 mm 4 mps 745 mmHg 89%
    02:00 +14°C° 0.1 mm 4 mps 745 mmHg 90%
    03:00 +14°C° 0.1 mm 4 mps 745 mmHg 90%
    04:00 +14°C° 0.1 mm 5 mps 745 mmHg 90%
    05:00 +14°C° 0.1 mm 5 mps 745 mmHg 91%
    06:00 +14°C° 0.2 mm 5 mps 745 mmHg 91%
    07:00 +13°C° 0.2 mm 5 mps 745 mmHg 91%
    08:00 +13°C° 0.2 mm 5 mps 745 mmHg 91%
    09:00 +14°C° 0.1 mm 5 mps 745 mmHg 89%
    10:00 +15°C° 0.1 mm 6 mps 746 mmHg 86%
    11:00 +16°C° 0.1 mm 6 mps 746 mmHg 83%
    12:00 +17°C° 0.1 mm 6 mps 746 mmHg 82%
    13:00 +17°C° 0.1 mm 6 mps 746 mmHg 80%
    14:00 +19°C° 0.1 mm 6 mps 746 mmHg 78%
    15:00 +19°C° 0 mm 6 mps 746 mmHg 77%
    16:00 +19°C° 0 mm 5 mps 746 mmHg 76%
    17:00 +19°C° 0 mm 5 mps 746 mmHg 75%
    18:00 +19°C° 0.1 mm 5 mps 746 mmHg 76%
    19:00 +17°C° 0.1 mm 5 mps 747 mmHg 76%
    20:00 +18°C° 0.1 mm 4 mps 747 mmHg 77%
    21:00 +16°C° 0 mm 5 mps 747 mmHg 78%
    22:00 +16°C° 0 mm 5 mps 747 mmHg 78%
    23:00 +15°C° 0 mm 5 mps 747 mmHg 78%
    Show more